Weather History for Dublin, VA

Change the Weather History Date:

Friday, June 28, 2013

  Actual Average (KBCB) Record (KBCB)
Temperature  
Mean Temperature 78 °F 70 °F  
Max Temperature 86 °F 82 °F 91 °F (1954)
Min Temperature 69 °F 59 °F 40 °F (1970)
Degree Days  
Heating Degree Days 0 0  
Month to date heating degree days 37  
Since 1 June heating degree days 37  
Since 1 July heating degree days 5445  
Cooling Degree Days 12 6  
Month to date cooling degree days 106  
Year to date cooling degree days 135  
Since 1 June cooling degree days 106  
Growing Degree Days 28 (Base 50)    
Moisture  
Dew Point 67 °F    
Average Humidity 75    
Maximum Humidity 100    
Minimum Humidity 48    
Precipitation  
Precipitation 0.00 in 0.12 in 2.18 in (2000)
Month to date precipitation 3.75  
Year to date precipitation 21.09  
Snow  
Snow 0.00 in - - ()
Month to date snowfall  
Since 1 June snowfall  
Since 1 July snowfall  
Snow Depth -    
Sea Level Pressure  
Sea Level Pressure 29.76 in    
Wind  
Wind Speed 7 mph (WSW)    
Max Wind Speed 18 mph    
Max Gust Speed 30 mph    
Visibility 10 miles    
Events Thunderstorm    
T = Trace of Precipitation, MM = Missing Value Source: NWS Daily Summary

Daily Weather History Graph

Daily Weather History Graph

Search for Another Location

Airport:

Trip Planner

Search our weather history database for the weather conditions in past years. The results will help you decide how hot, cold, wet, or windy it might be!

Date:

Astronomy

Jun. 28, 2013 Rise Set
Actual Time 6:05 AM EDT 8:46 PM EDT
Civil Twilight 5:34 AM EDT 9:17 PM EDT
Nautical Twilight 4:55 AM EDT 9:56 PM EDT
Astronomical Twilight 4:12 AM EDT 10:39 PM EDT
Moon No Moon Rise 12:02 PM EDT (6/28)
Length of Visible Light 15h 43m
Length of Day
14h 41m
Waning Gibbous, 66% of the Moon is Illuminated
Jun 28
Waning Gibbous
Jun 30
Last Quarter
Jul 8
New
Jul 15
First Quarter
Jul 22
Full

Hourly Weather History & Observations

Time (EDT) Temp. Heat Index Dew Point Humidity Pressure Visibility Wind Dir Wind Speed Gust Speed Precip Events Conditions
12:15 AM 69.8 °F - 69.8 °F 100% 29.85 in 10.0 mi West 3.5 mph - N/A   Clear
12:35 AM 69.8 °F - 69.8 °F 100% 29.85 in 10.0 mi WSW 5.8 mph - N/A   Clear
12:55 AM 69.8 °F - 68.0 °F 94% 29.85 in 10.0 mi WSW 4.6 mph - N/A   Clear
1:15 AM 69.8 °F - 68.0 °F 94% 29.84 in 10.0 mi SSW 3.5 mph - N/A   Clear
1:35 AM 69.8 °F - 68.0 °F 94% 29.85 in 10.0 mi SW 6.9 mph - N/A   Clear
1:55 AM 69.8 °F - 69.8 °F 100% 29.84 in 10.0 mi WSW 3.5 mph - N/A   Mostly Cloudy
2:35 AM 69.8 °F - 68.0 °F 94% 29.83 in 10.0 mi SSW 4.6 mph - N/A   Scattered Clouds
2:55 AM 69.8 °F - 68.0 °F 94% 29.82 in 10.0 mi SW 5.8 mph - N/A   Scattered Clouds
3:15 AM 69.8 °F - 68.0 °F 94% 29.82 in 10.0 mi SW 6.9 mph - N/A   Scattered Clouds
3:35 AM 69.8 °F - 69.8 °F 100% 29.81 in 10.0 mi SW 5.8 mph - N/A   Scattered Clouds
3:55 AM 69.8 °F - 69.8 °F 100% 29.81 in 10.0 mi WSW 8.1 mph - N/A   Clear
4:15 AM 69.8 °F - 68.0 °F 94% 29.81 in 7.0 mi SW 6.9 mph - N/A   Clear
4:35 AM 69.8 °F - 69.8 °F 100% 29.81 in 7.0 mi SW 6.9 mph - N/A   Scattered Clouds
4:55 AM 69.8 °F - 69.8 °F 100% 29.81 in 7.0 mi SSW 5.8 mph - N/A   Scattered Clouds
5:15 AM 69.8 °F - 69.8 °F 100% 29.81 in 7.0 mi Calm Calm - N/A   Scattered Clouds
5:35 AM 69.8 °F - 69.8 °F 100% 29.80 in 7.0 mi West 4.6 mph - N/A   Clear
5:55 AM 71.6 °F - 69.8 °F 94% 29.80 in 10.0 mi WSW 6.9 mph - N/A   Scattered Clouds
6:15 AM 71.6 °F - 68.0 °F 88% 29.80 in 10.0 mi West 5.8 mph - N/A   Scattered Clouds
6:35 AM 71.6 °F - 68.0 °F 88% 29.79 in 10.0 mi West 8.1 mph - N/A   Scattered Clouds
6:55 AM 73.4 °F - 69.8 °F 88% 29.79 in 10.0 mi WSW 8.1 mph - N/A   Clear
7:15 AM 73.4 °F - 69.8 °F 88% 29.79 in 10.0 mi West 11.5 mph 18.4 mph N/A   Clear
7:55 AM 75.2 °F - 69.8 °F 83% 29.79 in 10.0 mi WNW 5.8 mph - N/A   Scattered Clouds
8:55 AM 75.2 °F - 71.6 °F 89% 29.79 in 10.0 mi South 3.5 mph - N/A   Overcast
9:15 AM 77.0 °F - 69.8 °F 78% 29.79 in 10.0 mi WSW 3.5 mph - N/A   Mostly Cloudy
9:35 AM 78.8 °F - 69.8 °F 74% 29.79 in 10.0 mi WSW 4.6 mph - N/A   Mostly Cloudy
9:55 AM 80.6 °F 83.9 °F 69.8 °F 70% 29.79 in 10.0 mi West 8.1 mph - N/A   Scattered Clouds
10:15 AM 80.6 °F 82.7 °F 66.2 °F 61% 29.78 in 10.0 mi WSW 11.5 mph 16.1 mph N/A   Scattered Clouds
10:35 AM 80.6 °F 82.7 °F 66.2 °F 61% 29.78 in 10.0 mi West 9.2 mph - N/A   Scattered Clouds
10:55 AM 80.6 °F 83.2 °F 68.0 °F 65% 29.77 in 10.0 mi WSW 6.9 mph - N/A   Scattered Clouds
11:15 AM 80.6 °F 83.9 °F 69.8 °F 70% 29.77 in 10.0 mi SW 12.7 mph 16.1 mph N/A   Mostly Cloudy
11:35 AM 80.6 °F 83.9 °F 69.8 °F 70% 29.77 in 10.0 mi SW 10.4 mph 17.3 mph N/A   Scattered Clouds
11:55 AM 80.6 °F 84.6 °F 71.6 °F 74% 29.77 in 10.0 mi SW 6.9 mph 17.3 mph N/A   Scattered Clouds
12:15 PM 82.4 °F 86.3 °F 69.8 °F 66% 29.76 in 10.0 mi SW 10.4 mph 17.3 mph N/A   Scattered Clouds
12:35 PM 82.4 °F 85.4 °F 68.0 °F 62% 29.76 in 10.0 mi West 15.0 mph 21.9 mph N/A   Scattered Clouds
12:55 PM 86.0 °F 88.2 °F 66.2 °F 51% 29.76 in 10.0 mi West 13.8 mph 25.3 mph N/A   Clear
1:15 PM 82.4 °F 83.9 °F 64.4 °F 54% 29.75 in 10.0 mi West 11.5 mph 29.9 mph N/A   Scattered Clouds
1:35 PM 84.2 °F 85.6 °F 64.4 °F 51% 29.75 in 10.0 mi West 16.1 mph 27.6 mph N/A   Scattered Clouds
2:15 PM 84.2 °F 85.6 °F 64.4 °F 51% 29.73 in 10.0 mi West 12.7 mph 27.6 mph N/A Thunderstorm Clear
2:35 PM 84.2 °F 85.0 °F 62.6 °F 48% 29.73 in 10.0 mi West 12.7 mph 24.2 mph N/A   Scattered Clouds
2:55 PM 84.2 °F 85.0 °F 62.6 °F 48% 29.74 in 10.0 mi West 12.7 mph 23.0 mph N/A   Scattered Clouds
3:15 PM 84.2 °F 85.0 °F 62.6 °F 48% 29.73 in 10.0 mi West 12.7 mph 27.6 mph N/A   Scattered Clouds
3:35 PM 84.2 °F 85.6 °F 64.4 °F 51% 29.71 in 10.0 mi West 9.2 mph 20.7 mph N/A   Clear
3:55 PM 84.2 °F 85.0 °F 62.6 °F 48% 29.70 in 10.0 mi West 13.8 mph 18.4 mph N/A   Scattered Clouds
4:15 PM 84.2 °F 85.0 °F 62.6 °F 48% 29.69 in 10.0 mi West 18.4 mph 24.2 mph N/A   Scattered Clouds
4:35 PM 84.2 °F 85.6 °F 64.4 °F 51% 29.69 in 10.0 mi West 15.0 mph 24.2 mph N/A   Clear
4:55 PM 82.4 °F 83.4 °F 62.6 °F 51% 29.69 in 10.0 mi West 17.3 mph 23.0 mph N/A   Clear
5:15 PM 82.4 °F 83.4 °F 62.6 °F 51% 29.69 in 10.0 mi West 10.4 mph 19.6 mph N/A   Clear
5:35 PM 80.6 °F 82.7 °F 66.2 °F 61% 29.68 in 10.0 mi WSW 12.7 mph - N/A   Clear
5:55 PM 80.6 °F 82.7 °F 66.2 °F 61% 29.67 in 10.0 mi West 10.4 mph - N/A   Clear
6:15 PM 82.4 °F 84.6 °F 66.2 °F 58% 29.66 in 10.0 mi West 9.2 mph 16.1 mph N/A   Clear
6:35 PM 80.6 °F 82.3 °F 64.4 °F 58% 29.66 in 10.0 mi West 13.8 mph - N/A   Clear
6:55 PM 80.6 °F 81.8 °F 62.6 °F 54% 29.67 in 10.0 mi West 11.5 mph 17.3 mph N/A   Clear
7:15 PM 80.6 °F 81.8 °F 62.6 °F 54% 29.69 in 10.0 mi West 12.7 mph 18.4 mph N/A   Clear
7:35 PM 80.6 °F 81.8 °F 62.6 °F 54% 29.70 in 10.0 mi WSW 6.9 mph - N/A   Clear
7:55 PM 78.8 °F - 62.6 °F 57% 29.71 in 10.0 mi WSW 10.4 mph - N/A   Clear
8:15 PM 77.0 °F - 62.6 °F 61% 29.71 in 10.0 mi WSW 9.2 mph - N/A   Scattered Clouds
8:35 PM 75.2 °F - 62.6 °F 65% 29.71 in 10.0 mi WSW 8.1 mph - N/A   Clear
8:55 PM 71.6 °F - 66.2 °F 83% 29.72 in 10.0 mi SW 4.6 mph - N/A   Clear
9:15 PM 73.4 °F - 68.0 °F 83% 29.72 in 10.0 mi SSW 8.1 mph - N/A   Clear
9:35 PM 71.6 °F - 66.2 °F 83% 29.72 in 10.0 mi SW 5.8 mph - N/A   Clear
9:55 PM 69.8 °F - 66.2 °F 88% 29.72 in 10.0 mi WSW 4.6 mph - N/A   Clear
10:15 PM 69.8 °F - 66.2 °F 88% 29.73 in 10.0 mi WSW 5.8 mph - N/A   Clear
10:35 PM 69.8 °F - 66.2 °F 88% 29.73 in 10.0 mi WSW 5.8 mph - N/A   Clear
10:55 PM 69.8 °F - 64.4 °F 83% 29.74 in 10.0 mi West 5.8 mph - N/A   Clear
11:15 PM 69.8 °F - 64.4 °F 83% 29.74 in 10.0 mi West 5.8 mph - N/A   Clear
11:35 PM 69.8 °F - 64.4 °F 83% 29.75 in 10.0 mi WSW 8.1 mph - N/A   Clear
11:55 PM 69.8 °F - 64.4 °F 83% 29.75 in 10.0 mi West 8.1 mph - N/A   Scattered Clouds